Regional Weather Roundup
Issued by NWS Portland, ME

Current Version | Previous Version | Text Only | Print | Product List | Glossary Off
Versions: 1 2 3 4 5 6 7 8 9 10 11 12 13 14 15 16 17 18 19 20 21 22 23 24 25 26 27 28 29 30 31 32 33 34 35 36 37 38 39 40 41 42 43 44 45 46 47 48 49 50

000
ASUS41 KGYX 171510
RWRGYX
WEATHER ROUNDUP FOR MAINE AND NEW HAMPSHIRE
NATIONAL WEATHER SERVICE GRAY ME
1100 AM EDT THU AUG 17 2017

MEZ002-005-006-010-012-015-018-020-021-024-026-027-029-171600-
MAINE

CITY           SKY/WX    TMP DP  RH WIND       PRES   REMARKS
PORTLAND       PTSUNNY   75  49  39 NW12      30.01F
SANFORD        PTSUNNY   74  51  44 W14G21    30.03F
BAR HARBOR     SUNNY     70  46  42 W9G21     29.94F
WISCASSET      SUNNY     73  50  44 W8        30.00F
ROCKLAND       SUNNY     70  53  54 W14G24    29.97F
FRYEBURG       PTSUNNY   71  51  49 W8G20     30.02S
LEWISTONAUBURN SUNNY     71  52  50 NW13      30.00F
AUGUSTA        SUNNY     70  50  49 W13G23    29.99F
WATERVILLE     PTSUNNY   68  52  56 NW12G18   29.95F
BANGOR         MOSUNNY   72  45  37 NW20G26   29.94F
GREENVILLE       N/A     64  46  52 NW12G21   29.94S
MILLINOCKET    SUNNY     68  42  38 W13G21    29.92S
HOULTON        MOSUNNY   68  47  46 NW15G25   29.84R
PRESQUE ISLE   MOSUNNY   66  47  50 NW18G29   29.83F
FRENCHVILLE    CLOUDY    60  46  59 NW16G26   29.83R
CARIBOU        PTSUNNY   65  49  56 NW14G25   29.82S
$$

NHZ002-005-008-009-011-012-014-171600-
NEW HAMPSHIRE

CITY           SKY/WX    TMP DP  RH WIND       PRES   REMARKS
PORTSMOUTH     PTSUNNY   75  52  44 W8        30.02F
ROCHESTER      PTSUNNY   74  50  42 VRB6      30.03F
NASHUA         SUNNY     73  52  47 VRB3      30.06F
MANCHESTER     PTSUNNY   74  50  42 VRB3      30.04F
CONCORD        MOSUNNY   75  51  43 NW7       30.05F
LACONIA        PTSUNNY   70  52  52 VRB5      30.05F
PLYMOUTH       FAIR      69  51  51 W6        30.05F
BERLIN         SUNNY     68  50  52 NW8G17    30.04F
WHITEFIELD     MOSUNNY   67  51  56 VRB6      30.06F
JAFFREY        SUNNY     73  51  46 VRB5      30.09F
KEENE            N/A    N/A N/A N/A MISG        N/A
LEBANON        CLOUDY    70  54  56 W3        30.06F
MT WASHINGTON  FOG       41  41 100 NW52G62     N/A  VSB 0
$$

VTZ005-007-008-171600-
VERMONT

CITY           SKY/WX    TMP DP  RH WIND       PRES   REMARKS
ST JOHNSBURY     N/A     65  55  70 MISG      30.04F
MONTPELIER     MOSUNNY   67  53  61 NW8       30.11S
BURLINGTON     PTSUNNY   70  52  52 S7        30.06F
$$

MAZ007-012-024-CTZ003-RIZ002-NYZ038-NYZ072-171600-
SOUTHERN NEW ENGLAND AND NY

CITY           SKY/WX    TMP DP  RH WIND       PRES   REMARKS
BOSTON         PTSUNNY   74  48  39 CALM      30.06F
WORCESTER      MOSUNNY   70  46  42 CALM      30.10F
NANTUCKET      CLOUDY    74  55  51 CALM      30.06S
PROVIDENCE     PTSUNNY   76  50  40 NE8       30.08F
HARTFORD       PTSUNNY   73  52  46 E5        30.09F
ALBANY         MOSUNNY   71  53  52 NE3       30.10S
NEW YORK CITY  PTSUNNY   74  63  68 NE9       30.06F
$$

ANZ081-ANZ082-ANZ150-NHZ014-MEZ023>029-171600-
COASTAL MARINE OBSERVATIONS

STATION/POSITION TIME  TEMP    WIND        PRES    WAVE
                       AIR SEA DIR/SP/G            HT/PER
                 (UTC) (F)     (DEG/KT/KT) (MB)    (FT/S)
MOUNT DESERT ROC 1500   58                 1014.9F
MATINICUS ROCK   1400   61     260/ 14/ 15 1015.5R
ISLE OF SHOALS   1400   63     220/  6/  6 1017.3S
JEFFREYS LEDGE   1406      66                N/A     3/10
CASHES LEDGE BUO 1350   70 66              1016.4    3/10
GEORGES BANK BUO 1350   64 65              1016.6    4/ 9
$$

.............KEY..............
   WCI - WIND CHILL
   TC  - TEMPERATURE IN CELSIUS
   VSB - VISIBILITY IN MILES
   HX  - HEAT INDEX
   FAIR- INDICATES FEW OR NO CLOUDS BELOW 12,000 FT, WITH NO
         SIGNIFICANT WEATHER AND/OR OBSTRUCTIONS TO VISIBILITY.





USA.gov is the U.S. government's official web portal to all federal, state and local government web resources and services.